Location: Middlebury
(44.0153°N, 73.1678°W)
Time: 09:27:58
(UTC-04:00)

UWE-3 - Pass Details

Date: 22 June 2024
Orbit: 566 x 652 km, 97.8° (Epoch: 12 July)

Event Time Altitude Azimuth Distance (km) Brightness Sun altitude
Rises 02:08:07 0° 34° (NE) 2,870 ? -20.5°
Reaches altitude 10° 02:11:43 10° 66° (ENE) 1,936 ? -20.3°
Maximum altitude 02:13:20 12° 89° (E) 1,797 ? -20.2°
Drops below altitude 10° 02:14:56 10° 112° (ESE) 1,911 ? -20.1°
Enters shadow 02:16:01 - 124° (SE) 2,113 ? -20.0°
